Theta_e
347 347 348 346 346 349 351 352 352 353 352 352 353 352 352 352 352 349 344 346 346 347 345 350 348 353 347 349 347 346 343 340
321 346 348 346 345 346 348 349 351 351 351 349 349 348 347 347 348 345 340 338 339 344 344 345 344 344 342 341 341 341 339 338
319 323 350 347 344 345 345 345 346 348 347 345 345 344 344 343 345 342 340 337 336 340 342 343 343 341 339 337 337 338 337 338
309 320 340 345 345 343 342 341 344 343 341 340 340 340 339 340 342 338 339 338 337 339 340 341 340 338 339 338 336 337 336 340
306 308 312 346 344 343 339 339 341 340 338 338 337 338 339 338 340 337 337 338 337 339 337 336 337 337 335 340 343 342 340 337
304 308 315 339 344 341 342 347 340 337 339 340 339 340 339 339 340 338 338 341 340 338 334 334 340 345 344 341 339 335 333 331
304 306 320 345 344 343 345 343 343 341 341 341 341 340 340 342 342 340 341 344 342 338 337 342 344 343 339 335 333 332 327 328
304 306 319 345 345 345 342 335 335 344 342 344 342 342 343 346 344 341 343 343 342 341 345 343 341 339 336 334 331 330 328 327
304 305 316 345 343 337 342 344 344 346 342 344 342 340 342 345 343 343 343 342 343 347 344 340 338 335 333 334 331 328 327 329
303 305 313 344 343 342 342 338 334 344 348 347 345 344 344 345 344 344 343 343 344 345 341 337 334 331 329 329 328 327 327 329
301 302 304 340 343 342 336 336 337 344 349 346 344 346 346 343 342 343 345 345 345 342 338 336 331 329 328 327 328 326 323 323
301 302 301 322 342 343 340 342 347 344 347 345 344 342 340 341 341 341 341 342 340 336 332 330 330 328 328 326 325 322 319 314
299 301 303 304 342 345 344 343 345 334 332 340 345 341 342 340 339 336 335 337 336 335 335 333 330 328 324 321 319 317 315 312
299 303 304 304 330 346 346 345 343 330 329 329 340 343 340 338 336 334 335 335 334 334 332 329 327 324 321 318 316 314 313 312
298 300 301 303 330 344 344 344 343 338 335 342 342 340 339 337 335 334 333 333 332 329 327 325 323 319 317 315 314 314 313 311
298 299 301 302 329 341 344 344 342 343 341 342 338 333 341 339 337 335 333 333 329 326 324 321 319 317 316 316 314 314 312 310
299 300 302 305 320 337 344 343 343 341 341 343 340 341 343 340 336 336 332 329 325 322 320 318 316 316 316 314 313 311 311 309
299 301 302 316 321 336 344 344 341 341 341 341 338 336 341 337 336 330 327 325 322 318 317 316 316 315 314 312 311 310 309 308
306 308 306 316 334 341 343 342 340 340 339 338 340 338 336 332 328 325 323 321 317 315 316 315 315 313 312 311 309 310 308 307
306 309 307 329 337 341 340 340 339 340 338 337 337 335 330 325 322 322 320 316 316 316 316 315 313 312 311 311 310 309 308 306
Wind_Speed
21 19 23 22 18 13 15 15 14 13 12 10 7 7 7 7 10 9 6 5 5 4 3 4 3 8 3 5 5 4 4 3
14 18 20 21 20 19 18 16 14 11 8 7 9 8 6 6 7 8 6 4 5 4 3 4 3 3 4 3 3 4 5 4
7 12 17 22 20 19 19 19 16 12 12 7 8 8 8 7 8 8 6 5 5 4 4 4 4 3 3 4 3 4 3 4
4 2 13 16 21 21 20 18 15 14 9 9 8 7 8 7 6 8 10 6 5 4 4 5 4 4 4 4 3 3 1 1
6 2 9 13 5 12 12 7 6 14 14 9 6 5 7 6 5 6 8 7 6 6 5 4 4 1 1 1 4 4 4 3
7 1 2 10 15 14 15 12 2 2 9 11 8 6 5 4 4 5 7 5 5 5 4 2 3 4 4 4 4 5 5 4
9 1 6 11 17 18 15 16 11 6 6 6 9 10 7 5 4 4 5 5 5 4 3 4 5 5 5 4 4 4 3 3
9 4 7 11 15 17 18 11 22 12 4 4 2 6 5 4 4 4 6 5 6 5 6 6 4 5 4 4 5 4 3 2
8 6 7 15 14 13 12 15 13 9 5 4 7 9 6 6 4 6 6 5 7 7 6 5 3 4 4 4 3 4 4 3
10 8 8 16 20 17 14 13 17 14 7 6 5 7 4 6 4 4 6 7 7 7 7 5 4 5 5 5 4 2 3 4
9 9 8 12 18 20 18 12 13 16 17 5 1 3 5 4 4 5 4 7 8 9 7 6 5 5 4 4 4 5 3 4
9 7 7 14 16 21 20 18 17 9 11 8 4 5 6 4 5 5 6 8 10 9 8 6 6 5 5 5 4 4 4 4
12 9 10 9 15 17 18 20 20 14 12 10 13 6 8 10 8 11 8 7 9 10 9 7 8 5 5 6 6 8 5 4
11 14 9 6 13 16 18 20 21 18 16 14 9 10 16 14 11 10 5 5 6 9 9 8 8 6 5 5 5 8 6 6
9 15 10 5 12 16 17 22 20 22 23 22 18 14 12 17 14 13 10 7 6 8 10 8 7 7 6 6 6 6 6 5
9 11 9 6 14 17 20 20 18 19 20 17 15 13 8 12 14 10 4 5 6 8 10 7 9 8 6 6 4 5 6 5
11 10 13 9 13 19 21 19 17 18 20 17 16 14 12 11 16 15 9 7 6 10 8 9 9 9 6 6 5 6 6 6
7 7 9 10 12 18 19 19 21 20 19 17 15 13 13 13 14 17 17 9 11 11 9 9 8 8 7 6 5 5 8 4
7 4 6 15 17 16 16 18 21 20 22 19 18 12 15 14 13 15 14 12 10 10 10 10 10 9 7 6 6 7 7 6
7 8 7 11 16 16 15 15 22 23 22 20 18 17 16 16 15 15 15 12 9 9 9 11 9 7 6 7 7 6 6 8
Wind_Direction
159 169 167 171 164 164 163 158 162 161 163 161 155 150 155 156 160 162 159 161 187 191 203 204 200 210 214 235 256 246 245 250
330 186 171 162 174 170 163 162 160 159 158 169 154 152 157 164 163 167 160 162 195 193 200 200 198 219 212 226 252 265 262 257
286 293 198 165 166 170 173 160 162 156 163 167 164 163 163 171 171 169 171 175 186 186 190 188 212 204 214 229 233 259 294 318
222 341 278 189 168 170 168 164 154 152 166 168 170 173 161 169 180 175 182 182 176 189 182 212 218 202 213 216 216 264 322 254
279 317 305 207 161 149 134 113 166 165 162 163 160 175 161 179 172 181 183 192 180 176 184 206 208 198 164 88 96 75 73 66
267 68 312 150 144 147 147 119 50 258 175 167 160 165 155 192 158 180 181 195 171 160 185 120 112 134 109 95 107 78 61 54
274 25 125 155 148 147 143 131 136 241 252 198 163 161 162 175 164 170 170 176 157 138 82 93 83 74 80 96 66 101 78 48
272 264 136 151 166 163 166 157 137 212 237 265 213 178 151 162 157 169 154 162 125 98 87 84 80 85 73 73 92 60 78 14
267 265 138 152 168 164 153 143 151 124 176 207 205 187 163 161 152 160 149 143 108 117 106 100 88 87 82 85 95 73 34 4
271 265 131 160 168 178 155 168 162 147 202 224 206 181 155 146 123 130 128 120 124 122 116 107 100 98 75 61 63 76 49 18
270 264 155 178 171 175 172 178 182 185 177 191 234 68 63 71 106 93 90 107 117 111 103 108 108 85 82 66 64 67 94 25
263 257 244 170 187 180 187 170 172 162 155 162 189 205 138 107 82 84 82 102 102 98 97 94 89 85 81 65 55 71 85 43
263 251 247 183 173 180 182 181 173 166 164 188 191 193 126 108 103 96 80 80 96 94 94 100 93 81 77 78 69 67 63 83
245 252 240 217 175 174 172 177 180 166 157 173 216 148 133 123 124 108 100 89 92 98 100 100 90 86 85 83 79 78 79 74
234 258 239 211 179 174 173 174 174 169 174 181 170 152 123 135 126 123 143 133 131 118 112 99 99 100 87 85 80 79 73 70
228 247 237 203 187 182 179 175 169 155 156 157 158 151 147 137 129 106 134 126 133 120 103 116 105 93 90 85 81 92 83 79
237 236 250 226 192 195 184 169 151 158 153 146 154 153 150 150 134 131 127 134 137 110 115 106 101 92 92 94 90 89 86 73
210 244 230 232 216 199 176 163 148 149 152 136 143 153 136 160 147 133 124 139 122 116 118 106 101 95 94 88 85 82 83 74
140 7 263 226 197 190 171 156 140 142 141 145 147 152 141 128 119 118 121 123 123 118 112 106 104 101 102 99 84 86 87 83
103 342 335 233 184 176 168 150 141 142 141 146 142 140 133 125 121 124 123 120 113 116 107 98 98 101 101 91 88 82 92 86